Location: Kermapucano
(48.0667°N, 3.3000°W)
Time: 20:29:11
(UTC+00:00)

Cosmos 2074 Rocket - Pass Details

Date: 29 November 2020
Orbit: 968 x 985 km, 82.9° (Epoch: 27 January)

Event Time Altitude Azimuth Distance (km) Brightness Sun altitude
Rises 05:28:13 0° 182° (S) 3,647 7.1 -21.3°
Reaches altitude 10° 05:30:42 10° 182° (S) 2,703 6.4 -20.9°
Maximum altitude 05:36:53 80° 96° (E) 990 4.1 -19.9°
Drops below altitude 10° 05:43:07 10° 11° (N) 2,722 6.3 -18.9°
Sets 05:45:38 0° 11° (N) 3,675 7.0 -18.5°
